(485) Genua
ephemeris date magn radius delta ra dec elong phase
Opposition10 Jul 202613.13.272 AU2.298 AU19h07m-02°29'160.1°6.1°
Today27 Jul 202613.23.270 AU2.332 AU18h54m-03°16'153.0°8.1°
(485) Genua - 2026-07-27
astro.vanbuitenen.nl


 
-1 year
-1 month
-1 day
Now
+1 day
+1 month
+1 year

The interactive orbit chart above shows the body's path through the solar system and its position at the given date. Green and blue lines are shown perpendicular to the ecliptic plane: Green if the path is above the ecliptic plane, blue if it is below. (Left-click and drag to rotate the view; Right-click and drag to move the view; Use scroll wheel to zoom in our out.)

The orbital elements of Genua are:

            e (Eccentricity)                : 0.1892726
            a (Semimajor axis)              : 2.7517074
            i (Inclination)                 : 13.86467
            Ω (Longitude of ascending node) : 193.36623
            ω (Argument of perihelion)      : 272.07271
            M (Mean anomaly)                : 176.67705
            Epoch                           : 2026 Jun 09

            L (Longitude of perihelion)     : 105.50109
            B (Latitude of perihelion)      : -13.85542
            P (Orbital period in years)     : 4.56            
        

The light curve chart below shows the estimated development of the minor planet's magnitude.


The all-sky chart below shows the path of the minor planet over the same period as the light curve. The current position is marked yellow.





The following chart shows the path of the minor planet in the next few days. The field of view is optimized for (~10x50) binoculars and finderscopes.




Ephemerides:
Date       Time       RA (2000)    DEC (2000)    delta   radius  elong  phase   PA    magn
2026-07-27 00:00 UT   18 54 47.7   -03 16 26     2.332    3.270  153.0    8.1   128   13.2 
2026-07-27 21:38 UT   18 54 09.5   -03 19 52     2.336    3.270  152.3    8.3   127   13.2 
2026-07-28 00:00 UT   18 54 05.3   -03 20 15     2.337    3.270  152.2    8.3   126   13.2 
2026-07-29 00:00 UT   18 53 23.7   -03 24 10     2.341    3.269  151.4    8.5   125   13.2 
2026-07-30 00:00 UT   18 52 43.0   -03 28 10     2.346    3.269  150.6    8.8   123   13.2 
2026-07-31 00:00 UT   18 52 03.0   -03 32 16     2.352    3.269  149.8    9.0   122   13.3 
2026-08-01 00:00 UT   18 51 23.9   -03 36 26     2.357    3.269  149.0    9.2   120   13.3 
2026-08-02 00:00 UT   18 50 45.7   -03 40 42     2.363    3.269  148.1    9.4   119   13.3 
2026-08-03 00:00 UT   18 50 08.5   -03 45 03     2.368    3.268  147.3    9.7   117   13.3 
2026-08-04 00:00 UT   18 49 32.2   -03 49 28     2.375    3.268  146.4    9.9   116   13.3 
2026-08-05 00:00 UT   18 48 56.8   -03 53 57     2.381    3.268  145.5   10.1   115   13.3 
2026-08-06 00:00 UT   18 48 22.5   -03 58 31     2.387    3.268  144.6   10.3   114   13.3 
2026-08-07 00:00 UT   18 47 49.2   -04 03 09     2.394    3.268  143.7   10.6   113   13.4 
2026-08-08 00:00 UT   18 47 16.9   -04 07 51     2.401    3.267  142.8   10.8   112   13.4 
2026-08-09 00:00 UT   18 46 45.7   -04 12 36     2.408    3.267  141.9   11.0   111   13.4 
2026-08-10 00:00 UT   18 46 15.6   -04 17 25     2.416    3.267  141.0   11.3   110   13.4 
2026-08-11 00:00 UT   18 45 46.7   -04 22 18     2.424    3.267  140.1   11.5   109   13.4 
2026-08-12 00:00 UT   18 45 18.9   -04 27 13     2.431    3.266  139.2   11.7   108   13.4 
2026-08-13 00:00 UT   18 44 52.2   -04 32 11     2.440    3.266  138.3   11.9   107   13.4 
2026-08-14 00:00 UT   18 44 26.7   -04 37 12     2.448    3.266  137.3   12.1   106   13.5 
2026-08-15 00:00 UT   18 44 02.4   -04 42 15     2.456    3.266  136.4   12.3   106   13.5 
2026-08-16 00:00 UT   18 43 39.4   -04 47 20     2.465    3.265  135.5   12.6   105   13.5 
2026-08-17 00:00 UT   18 43 17.5   -04 52 27     2.474    3.265  134.6   12.8   104   13.5 
2026-08-18 00:00 UT   18 42 56.9   -04 57 36     2.483    3.265  133.6   13.0   104   13.5 
2026-08-19 00:00 UT   18 42 37.6   -05 02 47     2.492    3.264  132.7   13.2   103   13.5 
2026-08-20 00:00 UT   18 42 19.4   -05 07 59     2.502    3.264  131.8   13.4   102   13.6 
2026-08-21 00:00 UT   18 42 02.6   -05 13 13     2.511    3.264  130.8   13.6   102   13.6 
2026-08-22 00:00 UT   18 41 47.0   -05 18 27     2.521    3.264  129.9   13.8   101   13.6 
2026-08-23 00:00 UT   18 41 32.7   -05 23 43     2.531    3.263  129.0   13.9   101   13.6 
2026-08-24 00:00 UT   18 41 19.7   -05 28 59     2.541    3.263  128.1   14.1   100   13.6 
2026-08-25 00:00 UT   18 41 07.9   -05 34 16     2.551    3.263  127.1   14.3   100   13.6 
2026-08-26 00:00 UT   18 40 57.4   -05 39 33     2.562    3.262  126.2   14.5    99   13.6 


    Terminology:
            
    delta:  distance between minor planet and earth in AU
    radius: distance between minor planet and sun in AU
    magn:   magnitude (brightness) estimate    
    ra:     right ascension in hours (24h = 360deg)
    dec:    declination in degrees
    elong:  elongation in degrees (angle sun-earth-minor planet)    
    phase:  phase angle in degrees (angle sun-minor planet-earth)        
    AU:     Astronomical Unit (mean distance between earth and sun: 149597870.7 km
    

Orbital elements provided by the MPC (Minor Planet Center).
Calculations by a modified version of AAPlus, a C# implementation of the AA+ project by PJ Naughter from the algorithms presented in the book "Astronomical Algorithms" by Jean Meeus.
NGC2000 dso catalog and star labels from VizieR as provided by the Strasbourg astronomical Data Center.
Tycho2 catalog from the ESO archive.